(229367) = 1998 RU7 = 2000 DL49 = 2005 QM188

Discovered at Kitt Peak on 2005-08-31 by Spacewatch.

Orbit

Orbit type: Main Belt

Note: WebGL enabled browser required.

epoch2024-03-31.0
epoch JD2460400.5
perihelion date2023-09-23.50972
perihelion JD2460211.00973
argument of perihelion (°)121.17114
ascending node (°)354.79440
inclination (°)3.40755
eccentricity0.1131128
perihelion distance (AU)2.0093191
Tisserand w.r.t. Jupiter3.6
ΔV w.r.t. Earth (km/sec)8.8
semimajor axis (AU)2.2655859
mean anomaly (°)54.76716
mean daily motion (°/day)0.28902360
aphelion distance (AU)2.522
period (years)3.41
P-vector [x]-0.43796785
P-vector [y]0.80325735
P-vector [z]0.40368527
Q-vector [x]-0.89897446
Q-vector [y]-0.38862804
Q-vector [z]-0.20202269
absolute magnitude17.71
phase slope0.15
uncertainty0
referenceE2024-GJ9
observations used389
oppositions13
arc length (days)9344
first opposition used1998
last opposition used2024
residual rms (arc-secs)0.67
perturbers coarse indicatorM-v
perturbers precise indicator003Ek
first observation date used1998-09-12.0
last observation date used2024-04-12.0
computer nameMPCLINUX
JD of orbit computation2456819.676584
perihelion JD uncertainty (days)7.9300E-05
argument of perihelion uncertainty (°)4.9250E-05
ascending node uncertainty (°)4.2899E-05
inclination uncertainty (°)5.2524E-06
eccentricity uncertainty 2.3547E-08
perihelion distance uncertainty (AU)5.1709E-08
Minimum Orbit Intersection Distances (in AU)
for orbit epoch: 2460400.5, reference: E2024-GJ9
Mercury1.68392
Venus1.29079
Earth1.02852
Mars0.36614
Jupiter2.54504
Saturn7.00136
Uranus16.3274
Neptune27.5248

Observations

376 total observations over interval: 1998 09 12.28575 – 2024 03 17.461404
These data are available for download (format description).

Date (UT) J2000 RA J2000 Dec Magn Location Ref
1998 09 12.28575 22 45 25.68 -09 09 16.7 20.7 V 691 – Steward Observatory, Kitt Peak-Spacewatch MPS 2287
1998 09 12.30720 22 45 24.37 -09 09 20.8 20.9 V 691 – Steward Observatory, Kitt Peak-Spacewatch MPS 2287
1998 09 12.32841 22 45 23.08 -09 09 26.7 21.1 V 691 – Steward Observatory, Kitt Peak-Spacewatch MPS 2287
1998 09 18.25376 22 39 43.39 -09 32 59.4 20.7 V 691 – Steward Observatory, Kitt Peak-Spacewatch MPS 2287
1998 09 18.27788 22 39 42.08 -09 33 05.3 21.5 V 691 – Steward Observatory, Kitt Peak-Spacewatch MPS 2287
1998 09 18.29907 22 39 40.76 -09 33 10.6 20.5 V 691 – Steward Observatory, Kitt Peak-Spacewatch MPS 2287
2000 02 29.25539 10 21 34.52 +12 30 42.7 20.2   704 – Lincoln Laboratory ETS, New Mexico MPS 11220
2000 02 29.26874 10 21 33.76 +12 30 46.3 20.2   704 – Lincoln Laboratory ETS, New Mexico MPS 11220
2000 02 29.28208 10 21 32.91 +12 30 46.9 19.4   704 – Lincoln Laboratory ETS, New Mexico MPS 11220
2000 02 29.29544 10 21 31.96 +12 30 50.7 19.5   704 – Lincoln Laboratory ETS, New Mexico MPS 11220
2000 03 03.19480 10 18 36.02 +12 39 44.5 19.6   704 – Lincoln Laboratory ETS, New Mexico MPS 11220
2000 03 03.20808 10 18 35.24 +12 39 46.9 20.0   704 – Lincoln Laboratory ETS, New Mexico MPS 11220
2000 03 03.22136 10 18 34.36 +12 39 48.9 19.9   704 – Lincoln Laboratory ETS, New Mexico MPS 11220
2000 03 03.23461 10 18 33.52 +12 39 51.4 20.3   704 – Lincoln Laboratory ETS, New Mexico MPS 11220
2000 03 03.24786 10 18 32.63 +12 39 53.7 20.1   704 – Lincoln Laboratory ETS, New Mexico MPS 11220
2005 08 31.42803 00 38 37.03 +04 23 52.3 21.4 V 691 – Steward Observatory, Kitt Peak-Spacewatch MPS 253545
2005 08 31.44537 00 38 36.36 +04 23 49.6 21.2 V 691 – Steward Observatory, Kitt Peak-Spacewatch MPS 253545
2005 08 31.46271 00 38 35.75 +04 23 47.9 21.3 V 691 – Steward Observatory, Kitt Peak-Spacewatch MPS 253545
2005 09 14.43124 00 28 10.18 +03 42 30.7 20.9 V 691 – Steward Observatory, Kitt Peak-Spacewatch MPS 253545
2005 09 14.44873 00 28 09.22 +03 42 26.6 20.5 V 691 – Steward Observatory, Kitt Peak-Spacewatch MPS 253545
2005 09 14.46614 00 28 08.22 +03 42 22.6 20.4 V 691 – Steward Observatory, Kitt Peak-Spacewatch MPS 253545
2005 10 05.30463 00 07 34.46 +02 07 43.9 20.2 V G96 – Mt. Lemmon Survey MPS 253545
2005 10 05.31013 00 07 34.10 +02 07 42.3 20.2 V G96 – Mt. Lemmon Survey MPS 253545
2005 10 05.31566 00 07 33.78 +02 07 40.8 20.2 V G96 – Mt. Lemmon Survey MPS 253545
2005 10 05.32123 00 07 33.45 +02 07 38.8 20.2 V G96 – Mt. Lemmon Survey MPS 253545
2005 10 20.252867 23 54 31.421 +01 05 48.69 20.87 V 645 – Apache Point-Sloan Digital Sky Survey MPS 390350
2005 10 20.256339 23 54 31.256 +01 05 47.99 21.44   645 – Apache Point-Sloan Digital Sky Survey MPS 390350
2005 10 21.266687 23 53 48.355 +01 02 29.21 21.27 V 645 – Apache Point-Sloan Digital Sky Survey MPS 390350
2005 10 21.270159 23 53 48.200 +01 02 28.58 21.39   645 – Apache Point-Sloan Digital Sky Survey MPS 390350
2005 10 23.229377 23 52 29.625 +00 56 27.55 21.05 V 645 – Apache Point-Sloan Digital Sky Survey MPS 390350
2005 10 23.232849 23 52 29.480 +00 56 26.93 21.81   645 – Apache Point-Sloan Digital Sky Survey MPS 390350
2005 10 27.20609 23 50 09.27 +00 45 59.4 21.1 V G96 – Mt. Lemmon Survey MPS 253545
2005 10 27.21284 23 50 09.06 +00 45 58.5 20.9 V G96 – Mt. Lemmon Survey MPS 253545
2005 10 27.21950 23 50 08.80 +00 45 57.8 20.8 V G96 – Mt. Lemmon Survey MPS 253545
2005 10 27.22619 23 50 08.59 +00 45 56.5 20.7 V G96 – Mt. Lemmon Survey MPS 253545
2005 10 27.244277 23 50 07.949 +00 45 54.20 21.05 V 645 – Apache Point-Sloan Digital Sky Survey MPS 390350
2005 10 27.247749 23 50 07.834 +00 45 53.73 21.69   645 – Apache Point-Sloan Digital Sky Survey MPS 390350
2005 10 30.211257 23 48 41.235 +00 39 44.92 21.04 V 645 – Apache Point-Sloan Digital Sky Survey MPS 390350
2005 10 30.214729 23 48 41.135 +00 39 44.50 21.69   645 – Apache Point-Sloan Digital Sky Survey MPS 390350
2005 10 31.206317 23 48 15.684 +00 38 00.84 21.16 V 645 – Apache Point-Sloan Digital Sky Survey MPS 390350
2005 10 31.209789 23 48 15.592 +00 38 00.55 21.74   645 – Apache Point-Sloan Digital Sky Survey MPS 390350
2005 11 02.295247 23 47 27.771 +00 34 55.48 21.25 V 645 – Apache Point-Sloan Digital Sky Survey MPS 390350
2005 11 02.298719 23 47 27.695 +00 34 55.15 21.78   645 – Apache Point-Sloan Digital Sky Survey MPS 390350
2005 11 07.257727 23 46 07.162 +00 30 41.28 21.50 V 645 – Apache Point-Sloan Digital Sky Survey MPS 390350
2005 11 07.261199 23 46 07.115 +00 30 41.05 22.23   645 – Apache Point-Sloan Digital Sky Survey MPS 390350
2007 01 28.48676 12 49 07.64 -04 36 33.9 21.7 V G96 – Mt. Lemmon Survey MPS 253545
2007 01 28.49587 12 49 07.86 -04 36 36.3 21.8 V G96 – Mt. Lemmon Survey MPS 253545
2007 01 28.50482 12 49 08.11 -04 36 37.9 20.8 V G96 – Mt. Lemmon Survey MPS 253545
2007 01 28.51368 12 49 08.29 -04 36 40.5 21.3 V G96 – Mt. Lemmon Survey MPS 253545
2007 03 13.22735 12 38 08.93 -04 57 18.2 20.6 V 691 – Steward Observatory, Kitt Peak-Spacewatch MPS 253545
2007 03 13.24496 12 38 07.98 -04 57 14.6 20.5 V 691 – Steward Observatory, Kitt Peak-Spacewatch MPS 253545
2007 03 13.26258 12 38 06.98 -04 57 11.3 20.4 V 691 – Steward Observatory, Kitt Peak-Spacewatch MPS 253545
2007 03 26.29683 12 25 19.77 -04 06 00.7 19.8 V G96 – Mt. Lemmon Survey MPS 253545
2007 03 26.30504 12 25 19.23 -04 05 58.6 19.8 V G96 – Mt. Lemmon Survey MPS 253545
2007 03 26.31325 12 25 18.73 -04 05 56.5 19.7 V G96 – Mt. Lemmon Survey MPS 253545
2007 03 26.32152 12 25 18.19 -04 05 54.3 19.8 V G96 – Mt. Lemmon Survey MPS 253545
2007 04 19.21449 12 03 52.92 -02 32 08.5 20.4 V G96 – Mt. Lemmon Survey MPS 253545
2007 04 19.22175 12 03 52.63 -02 32 07.6 20.6 V G96 – Mt. Lemmon Survey MPS 253545
2007 04 19.22897 12 03 52.34 -02 32 06.1 20.4 V G96 – Mt. Lemmon Survey MPS 253545
2007 04 19.23613 12 03 52.02 -02 32 04.8 20.4 V G96 – Mt. Lemmon Survey MPS 253545
2009 11 21.35225 07 42 32.29 +26 48 44.1 20.9 V G96 – Mt. Lemmon Survey MPS 304904
2009 11 21.35808 07 42 32.36 +26 48 44.3 20.7 V G96 – Mt. Lemmon Survey MPS 304904
2009 11 21.36404 07 42 32.47 +26 48 45.2 20.4 V G96 – Mt. Lemmon Survey MPS 304904
2009 11 21.36994 07 42 32.58 +26 48 45.7 21.3 V G96 – Mt. Lemmon Survey MPS 304904
2009 12 19.33880 07 35 22.16 +27 53 33.6 19.7 V G96 – Mt. Lemmon Survey MPS 308637
2009 12 19.34460 07 35 21.87 +27 53 34.7 19.8 V G96 – Mt. Lemmon Survey MPS 308637
2009 12 19.35027 07 35 21.58 +27 53 35.5 20.0 V G96 – Mt. Lemmon Survey MPS 308637
2009 12 19.35788 07 35 21.15 +27 53 37.0 20.1 V G96 – Mt. Lemmon Survey MPS 308637
2010 01 08.35262 07 14 10.17 +28 34 47.4 19.5 V G96 – Mt. Lemmon Survey MPS 310102
2010 01 08.35765 07 14 09.78 +28 34 47.6 19.4 V G96 – Mt. Lemmon Survey MPS 310102
2010 01 08.36266 07 14 09.42 +28 34 48.0 19.5 V G96 – Mt. Lemmon Survey MPS 310102
2010 01 08.36766 07 14 09.06 +28 34 48.3 19.5 V G96 – Mt. Lemmon Survey MPS 310102
2010 01 08.37263 07 14 08.66 +28 34 48.5 19.5 V G96 – Mt. Lemmon Survey MPS 310102
2010 04 03.202299 07 21 29.18 +24 37 55.7   C51 – WISE MPS 322097
2010 04 03.334602 07 21 40.21 +24 37 15.3   C51 – WISE MPS 322097
2010 04 03.599338 07 22 02.33 +24 35 58.4   C51 – WISE MPS 322097
2010 04 03.731641 07 22 13.52 +24 35 19.3   C51 – WISE MPS 322097
2010 04 03.797730 07 22 19.05 +24 34 59.1   C51 – WISE MPS 322097
2010 04 03.863946 07 22 24.60 +24 34 40.3   C51 – WISE MPS 322097
2010 04 03.930035 07 22 30.15 +24 34 20.0   C51 – WISE MPS 322097
2010 04 03.996250 07 22 35.68 +24 34 01.3   C51 – WISE MPS 322097
2010 04 04.062338 07 22 41.24 +24 33 40.6   C51 – WISE MPS 322097
2010 04 04.062465 07 22 41.29 +24 33 40.9   C51 – WISE MPS 322097
2010 04 04.12855 07 22 46.88 +24 33 20.6   C51 – WISE MPS 322097
2010 04 04.194770 07 22 52.46 +24 33 01.9   C51 – WISE MPS 322097
2010 04 04.327074 07 23 03.68 +24 32 22.4   C51 – WISE MPS 322097
2010 04 04.459377 07 23 14.839 +24 31 43.21   C51 – WISE MPS 903587
2010 04 04.591682 07 23 26.12 +24 31 03.6   C51 – WISE MPS 322097
2010 04 04.723986 07 23 37.25 +24 30 23.6   C51 – WISE MPS 322097
2012 10 16.30424 01 57 08.10 +15 35 36.1 19.3 V 703 – Catalina Sky Survey MPS 437521
2012 10 16.30988 01 57 07.77 +15 35 34.4 19.5 V 703 – Catalina Sky Survey MPS 437521
